Terug naar catalogus

ARIANE 1 DEB

ActiefUNKNOWN
NORAD 25767·DEBRIS·🇫🇷 France

Gelanceerd Dec 24, 1979 vanaf Guiana Space Centre

Loading…

Volgende Passages (komende 24 uur)

TLE

VersSource: Space-Track

Epoch: Sep 14, 2026, 00:49 UTC

1 25767U 79104J   26257.03453131  .00065736  00000-0  39526-2 0  9994
2 25767  17.8088 171.8005 2325747 353.3219   4.0670 10.66319465392720

Volg ARIANE 1 DEB in realtime met AllMySat

Download on the App Store